Location: *
(48.3456°N, 14.0503°E)
Time: 13:31:27
(UTC+00:00)

Daily predictions for brighter satellites

Satellite Brightness Start Highest point End
(mag) Time Altitude Azimuth Time Altitude Azimuth Time Altitude Azimuth
Unknown 4.0 16:40:37 10° SW 16:44:37 49° SE 16:48:38 10° ENE
Unknown 4.0 16:42:13 10° SW 16:46:14 50° SE 16:50:15 10° ENE
Cosmos 2278 Rocket 3.9 16:45:26 10° ESE 16:47:12 11° E 16:48:59 10° ENE
CZ-4 R/B 1.8 16:43:46 10° SE 16:47:43 44° ENE 16:51:44 10° N
Cosmos 1470 2.7 16:43:55 10° S 16:47:53 75° E 16:51:53 10° NNE
Unknown 3.9 16:44:04 10° SW 16:48:07 55° SE 16:52:12 10° ENE
YAOGAN 6 3.1 16:44:56 10° SE 16:48:21 38° ENE 16:51:46 10° N
Unknown 3.9 16:45:30 10° SW 16:49:33 53° SE 16:53:36 10° ENE
Cosmos 1844 4.3 16:44:44 10° S 16:49:56 38° ESE 16:55:13 10° NE
NOSS 2-1 (E) 4.5 16:44:50 10° NW 16:50:12 76° NE 16:57:43 10° SE
H-2A R/B 4.0 16:49:42 10° ENE 16:50:41 10° NE 16:51:41 10° NE
Cosmos 2084 4.3 16:46:42 10° S 16:50:49 35° ESE 16:54:53 10° ENE
Unknown 3.9 16:47:11 10° SW 16:51:13 54° SE 16:55:17 10° ENE
Lacrosse 5 3.0 16:47:20 10° NW 16:51:53 32° N 16:56:24 10° ENE
USA 116 4.5 16:51:48 10° NE 16:54:16 21° E 16:56:47 10° SSE
Unknown 3.8 16:50:28 10° SW 16:54:31 57° SSE 16:58:36 10° ENE
Cosmos 1825 Rocket 3.5 16:50:14 10° N 16:54:36 70° E 16:58:58 10° SSE
Cosmos 1953 Rocket 3.7 16:51:27 10° N 16:55:45 49° ENE 16:59:59 10° SSE
Unknown 3.8 16:52:09 10° SW 16:56:13 59° SSE 17:00:18 10° ENE
Unknown 3.8 16:53:48 10° SW 16:57:53 60° SSE 17:01:58 10° ENE
Unknown 3.7 16:55:28 10° SW 16:59:34 61° SSE 17:03:38 10° ENE
ATLAS 5 CENTAUR R/B 1.6 16:56:15 10° SSW 17:00:29 72° SE 17:05:17 10° NE
Cosmos 304 Rocket 3.9 16:57:25 10° SSW 17:02:14 85° WNW 17:07:05 10° NNE
Unknown 3.7 16:58:46 10° SW 17:02:51 65° SSE 17:06:49 11° ENE
COBE Rocket 4.0 16:59:15 10° NNE 17:04:27 72° E 17:09:33 10° S
Unknown 3.7 17:00:25 10° SW 17:04:31 68° SSE 17:08:26 11° ENE
Unknown 3.6 17:00:40 10° SW 17:04:48 73° SSE 17:08:44 11° ENE
Unknown 3.6 17:02:16 10° SW 17:06:24 73° SSE 17:10:16 12° ENE
BREEZE-M DEB (TANK) 3.5 17:02:51 10° WNW 17:06:57 82° NNE 17:17:17 10° ESE
Unknown 3.6 17:05:18 10° SW 17:09:25 71° SSE 17:13:08 13° ENE
Cosmos 1606 Rocket 3.5 17:06:28 10° S 17:10:51 70° E 17:15:12 10° NNE
Unknown 3.6 17:08:38 10° SW 17:12:46 74° SSE 17:16:21 14° ENE
Unknown 2.7 17:11:50 10° WNW 17:14:27 55° NNE 17:16:06 20° E
Unknown 3.6 17:10:22 10° SW 17:14:30 76° SSE 17:18:01 14° ENE
Unknown 3.6 17:11:57 10° WSW 17:16:05 78° SSE 17:19:33 14° ENE
Cosmos 2263 Rocket 3.9 17:11:01 10° WSW 17:16:06 33° NW 17:21:11 10° NNE
Cosmos 2285 Rocket 4.2 17:09:51 10° NNW 17:16:19 78° WSW 17:22:42 10° SSE
CSL-04 Rocket 3.7 17:10:53 10° SSE 17:16:24 73° ENE 17:21:55 10° NNW
Cosmos 1758 Rocket 4.1 17:12:59 10° NNW 17:17:23 64° W 17:21:48 10° S
Unknown 3.6 17:13:40 10° WSW 17:17:48 79° SSE 17:21:12 15° ENE
NOAA 11 4.4 17:14:09 10° SE 17:19:20 47° ENE 17:24:32 10° N
Unknown 3.5 17:17:40 10° WSW 17:21:47 89° ESE 17:25:00 16° ENE
Envisat 3.5 17:17:29 10° S 17:22:32 66° WSW 17:27:36 10° NNW
SL-4 R/B 2.7 17:18:54 10° WNW 17:22:38 45° SSW 17:26:07 10° SE
Unknown 3.6 17:20:16 10° WSW 17:24:25 86° SSE 17:27:34 17° ENE
Cosmos 1271 Rocket 3.1 17:20:45 10° NNW 17:24:42 72° W 17:28:40 10° S
Gbstr 26 Del rocket 4.2 17:18:52 10° WNW 17:24:46 67° N 17:30:22 17° E
CZ-2D R/B 3.5 17:21:09 10° SE 17:24:49 45° ENE 17:28:33 10° N
Unknown 3.6 17:21:56 10° WSW 17:26:05 87° SE 17:29:09 18° ENE
Unknown 3.6 17:23:37 10° WSW 17:27:46 89° SSE 17:30:47 18° ENE
EO 1 Delta rocket 3.8 17:24:03 10° SSE 17:28:37 63° ENE 17:33:22 10° N
Unknown 3.6 17:25:14 10° WSW 17:29:22 89° NW 17:32:19 19° ENE
Cosmos 1833 Rocket 3.3 17:25:18 10° NNW 17:30:28 36° NE 17:33:53 19° ESE
Unknown 3.6 17:26:54 10° WSW 17:31:03 88° NW 17:33:55 19° ENE
SKYMED 2 3.7 17:27:11 10° N 17:31:33 79° WNW 17:35:54 10° SSW
Unknown 3.7 17:29:25 10° WSW 17:33:27 71° NNW 17:36:13 20° ENE
Unknown 3.6 17:30:17 10° WSW 17:34:26 85° NNW 17:37:11 21° ENE
ARGOS 4.4 17:34:15 19° E 17:35:44 21° ENE 17:39:44 10° N
Starlink (trailer) 3.6 17:31:56 10° WSW 17:36:05 83° NNW 17:38:46 21° ENE
Unknown 3.6 17:33:36 10° WSW 17:37:45 82° NNW 17:40:22 22° ENE
Cosmos 1356 3.4 17:34:28 10° S 17:37:49 54° E 17:41:13 10° NNE
YAOGAN 1 2.8 17:33:59 10° S 17:38:18 74° WSW 17:42:39 10° NNW
Cosmos 1953 3.4 17:35:24 10° SSW 17:39:21 49° WNW 17:43:20 10° N
Unknown 3.6 17:35:13 10° WSW 17:39:23 80° NNW 17:41:55 23° ENE
Cosmos 1703 3.1 17:36:19 10° N 17:40:16 70° E 17:44:11 10° SSE
Cosmos 1726 1.9 17:37:32 10° S 17:41:10 68° E 17:44:49 10° NNE
ADEOS Rocket 4.3 17:35:01 10° NE 17:41:14 26° E 17:47:10 10° SE
SJ-6B 4.2 17:44:01 20° NE 17:44:01 20° NE 17:46:15 10° NNE
Cosmos 1461 3.8 17:41:02 10° NNW 17:44:39 30° NE 17:45:38 27° ENE
CZ-4C R/B 4.1 17:38:00 10° NW 17:44:49 43° WSW 17:52:25 10° S
FALCON 9 DEB 4.1 17:41:58 10° WNW 17:45:15 37° N 17:46:30 27° NE
Unknown 3.7 17:41:52 10° WSW 17:46:00 74° NNW 17:48:17 26° ENE
Unknown 3.7 17:41:54 10° WSW 17:46:03 75° NNW 17:48:20 26° ENE
COSMOS 2406 3.2 17:40:40 10° NNW 17:46:30 83° ENE 17:52:14 10° SSE
Unknown 3.7 17:42:42 10° WSW 17:46:51 74° NNW 17:49:06 26° ENE
Unknown 4.1 17:44:33 10° WNW 17:47:52 37° N 17:49:05 28° NE
Cosmos 2082 Rocket 2.9 17:42:46 10° NNW 17:48:01 35° NE 17:50:13 26° E
Cosmos 1076 Rocket 4.3 17:46:02 10° N 17:49:54 30° ENE 17:50:06 29° ENE
Unknown 3.7 17:46:47 10° WSW 17:50:55 71° NNW 17:52:59 28° ENE
Unknown 3.7 17:46:55 10° WSW 17:51:03 71° NNW 17:53:07 28° ENE
IRS-1A Rocket 4.2 17:46:12 10° SSE 17:51:40 66° ENE 17:57:07 10° N
ASTEX 1 4.0 17:47:27 10° N 17:52:19 59° W 17:57:11 10° SSW
Unknown 3.8 17:48:41 10° WSW 17:52:49 68° NNW 17:54:50 29° NE
MOS 1 4.4 17:47:45 11° SE 17:52:56 53° ENE 17:58:26 10° N
Cosmos 1726 Rocket 4.3 17:48:52 10° SSW 17:53:11 54° WNW 17:57:30 10° N
Unknown 3.8 17:52:00 10° WSW 17:56:08 67° NNW 17:58:01 31° NE
Unknown 3.8 17:52:34 10° WSW 17:56:42 67° NNW 17:58:32 31° NE
Meteor 1-11 4.2 17:51:05 10° N 17:56:52 87° E 18:02:40 10° S
Cosmos 1339 Rocket 4.3 17:51:37 10° S 17:57:38 68° E 18:03:44 10° NNE
Unknown 3.9 17:54:23 10° WNW 17:57:38 40° N 17:58:15 36° NE
Unknown 3.8 17:53:36 10° WSW 17:57:44 67° NNW 17:59:32 32° NE
Cosmos 1242 Rocket 3.3 17:54:14 10° NNW 17:57:51 54° W 18:01:27 10° S
Unknown 3.8 17:56:49 10° WSW 18:00:57 66° NNW 18:02:36 34° NE
Shenzhou-11 Module 3.6 17:59:08 10° SW 18:00:58 23° SSW 18:00:58 23° SSW
Cosmos 2058 Rocket 3.4 17:58:43 10° SSW 18:03:03 65° WNW 18:07:25 10° N
Unknown 2.9 17:59:58 10° WNW 18:03:06 66° NNE 18:03:09 65° NNE
SJ-11-01 4.4 18:01:36 32° SE 18:03:24 50° ENE 18:07:58 10° N
Cosmos 1939 Rocket 3.0 17:59:42 10° S 18:03:39 75° WSW 18:07:42 10° NNW
Unknown 3.9 18:00:15 10° W 18:04:23 63° NNW 18:05:54 36° NE
Ariane Rocket 3.0 17:59:57 10° SSE 18:05:02 87° WSW 18:10:12 10° NNW
USA 238 DEB 4.3 17:59:22 10° S 18:05:05 31° ESE 18:05:37 31° ESE
USA 238 4.3 17:59:29 10° S 18:05:11 31° ESE 18:05:38 30° ESE
Unknown 3.9 18:01:55 10° W 18:06:02 62° NNW 18:07:29 37° NE
Falcon 9 debris 3.8 18:04:07 10° WNW 18:07:26 41° N 18:07:41 41° NNE
Unknown 3.9 18:03:37 10° W 18:07:44 61° NNW 18:09:07 38° NE
Cosmos 1605 Rocket 4.0 18:02:06 10° N 18:08:21 84° W 18:14:29 10° S
Unknown 4.0 18:05:17 10° W 18:09:24 60° NNW 18:10:43 39° NE
Cosmos 1459 Rocket 4.3 18:03:39 10° N 18:09:30 42° ENE 18:11:19 34° ESE
Lacrosse 5 rocket 3.1 18:07:09 10° WNW 18:10:21 26° SW 18:13:01 13° S
SPOT 3 Rocket 3.8 18:09:12 39° E 18:10:21 45° ENE 18:15:17 10° N
Unknown 4.2 18:07:37 10° WNW 18:11:10 39° N 18:11:49 35° NNE
ATLAS CENTAUR R/B 4.1 18:10:13 10° N 18:11:15 11° N 18:12:16 10° NNE
Unknown 3.9 18:08:12 10° WNW 18:11:33 41° N 18:11:44 41° NNE
Unknown 4.0 18:08:35 10° W 18:12:41 58° NNW 18:13:52 41° NE
USA 234 4.3 18:13:46 24° SE 18:13:46 24° SE 18:18:03 10° S
Unknown 4.3 18:09:16 10° W 18:13:00 43° N 18:13:52 37° NNE
Unknown 4.3 18:10:23 10° WNW 18:14:02 41° N 18:14:45 37° NNE
Cosmos 1844 Rocket 3.7 18:08:59 10° SW 18:14:24 46° NW 18:19:50 10° NNE
Unknown 4.0 18:10:23 10° W 18:14:28 57° NNW 18:15:34 42° NE
Meteor 2-10 4.3 18:10:48 10° SSW 18:15:52 65° WNW 18:20:54 10° N
Unknown 4.0 18:11:59 10° W 18:16:04 57° NNW 18:17:06 43° NE
Cosmos 1727 Rocket 3.9 18:10:01 10° S 18:16:07 66° E 18:22:14 10° NNE
Unknown 4.0 18:13:35 10° W 18:17:40 57° NNW 18:18:38 44° NNE
Unknown 4.1 18:14:10 10° W 18:18:15 56° NNW 18:19:12 44° NNE
Cosmos 921 Rocket 4.1 18:14:04 10° SW 18:18:26 48° WNW 18:22:47 10° N
Resurs 01 Rocket 3.5 18:21:45 17° NNE 18:21:45 17° NNE 18:23:19 10° N
Cosmos 1908 3.7 18:16:57 10° SSW 18:20:49 62° W 18:24:43 10° N
Cosmos 1802 Rocket 4.4 18:14:42 10° N 18:20:50 44° ENE 18:21:55 40° E
Unknown 4.0 18:16:46 10° W 18:20:51 57° NNW 18:21:40 47° NNE
CZ-4 R/B 4.2 18:19:50 10° SW 18:22:57 20° W 18:26:06 10° NW
Unknown 4.0 18:20:09 10° W 18:24:13 55° NNW 18:24:54 48° NNE
Cosmos 1777 Rocket 4.2 18:19:04 10° NNW 18:24:16 69° WSW 18:27:46 21° S
Unknown 4.0 18:21:46 10° W 18:25:50 54° NNW 18:26:26 49° NNE
Unknown 4.1 18:23:44 10° W 18:27:47 52° NNW 18:28:19 48° NNE
H-2A R/B 2.2 18:28:31 53° E 18:28:55 54° ENE 18:34:11 10° N
Unknown 4.1 18:25:06 10° W 18:29:10 53° NNW 18:29:38 50° NNE
Cosmos 2278 Rocket 2.0 18:24:35 10° SSW 18:30:13 71° ESE 18:34:57 15° NNE
Cosmos 2173 Rocket 4.0 18:24:07 10° N 18:30:21 59° ENE 18:31:56 46° SE
Unknown 4.1 18:26:49 10° W 18:30:53 53° NNW 18:31:16 50° N
Unknown 4.1 18:30:08 10° W 18:34:12 52° NNW 18:34:27 51° N
SJ 16-02 3.4 18:31:07 10° N 18:32:32 16° NNE 18:32:32 16° NNE
Lacrosse 5 1.9 18:30:36 10° NW 18:35:37 61° NNE 18:35:56 59° NE
NOSS 3-3 (A) 4.5 18:28:17 10° NW 18:35:37 67° NE 18:38:16 44° ESE
NOSS 3-3 (C) 4.5 18:28:23 10° NW 18:35:43 67° NE 18:38:20 44° ESE
Unknown 4.1 18:31:51 10° W 18:35:54 51° NNW 18:36:05 51° N
Unknown 4.2 18:33:31 10° W 18:37:35 50° NNW 18:37:40 50° N
Unknown 4.2 18:35:13 10° W 18:39:16 50° NNW 18:39:17 50° N
Unknown 4.3 18:38:33 10° W 18:42:28 49° NNW 18:42:28 49° NNW
Unknown 4.3 18:40:14 10° W 18:44:05 48° NNW 18:44:05 48° NNW
Unknown 4.4 18:40:34 10° W 18:44:23 46° NNW 18:44:23 46° NNW
CZ-2C R/B 3.6 18:45:55 50° NE 18:45:55 50° NE 18:51:03 10° N
ATLAS 5 CENTAUR R/B 3.6 18:41:51 10° W 18:45:40 26° NNW 18:48:44 15° NNE
Unknown 4.4 18:42:10 10° W 18:45:56 46° NNW 18:45:56 46° NNW
Cosmos 1725 Rocket 4.5 18:40:43 10° N 18:45:49 42° NE 18:45:49 42° NE
Cosmos 2100 Rocket 3.8 18:41:39 10° N 18:47:54 83° E 18:49:41 50° SSE
Unknown 4.5 18:45:11 10° W 18:48:48 46° NNW 18:48:48 46° NNW
Cosmos 1000 Rocket 4.3 18:51:36 67° E 18:51:38 67° E 18:57:50 10° NNE
Cosmos 967 Rocket 4.4 18:46:10 10° NW 18:52:40 85° NE 18:53:41 66° SE
Cosmos 2058 4.1 18:48:53 10° N 18:51:28 36° N 18:51:28 36° N
Cosmos 1898 Rocket 4.2 19:00:24 10° NNW 19:04:08 43° N 19:04:08 43° N
Gbstr 26 Del rocket 4.1 19:05:50 10° WNW 19:12:20 75° SSW 19:12:54 71° S
Cosmos 2016 Rocket 3.9 19:07:17 10° N 19:13:08 77° NNE 19:13:08 77° NNE
Cosmos 1833 Rocket 3.5 19:09:12 10° NW 19:14:31 45° WSW 19:15:36 40° SW
ARGOS 3.4 19:15:47 69° WNW 19:15:47 69° WNW 19:20:55 10° NNW
Cosmos 2061 Rocket 3.9 19:13:52 10° N 19:19:54 81° NW 19:19:54 81° NW
ADEOS Rocket 3.5 19:19:39 10° NNE 19:27:28 79° WNW 19:34:50 10° SSW
Cosmos 2082 Rocket 3.0 19:26:49 10° NW 19:32:05 47° WSW 19:32:05 47° WSW
ATLAS CENTAUR R/B 4.4 19:48:49 10° NNW 19:49:26 12° NNW 19:49:26 12° NNW
USA 238 DEB 4.5 19:48:49 10° SW 19:53:10 42° WSW 19:53:10 42° WSW
Resurs 01 Rocket 4.3 19:59:19 16° NNW 19:59:19 16° NNW 20:00:20 10° NNW
H-2A R/B 4.1 20:09:09 24° W 20:09:09 24° W 20:13:01 10° NW
SJ 16-02 4.4 20:09:11 10° NNW 20:09:32 12° NNW 20:09:32 12° NNW
Cosmos 2278 Rocket 4.1 20:10:13 10° W 20:14:53 25° NW 20:16:57 21° NNW
Lacrosse 5 4.4 20:13:49 10° WNW 20:15:08 17° WNW 20:15:08 17° WNW
